Weather reports worldwide

Advertisment
Coningsby, United Kingdom (3391): temperature & dewpoint: 23.07.2017 12:00:00 - 29.07.2017 12:00:00 (BST)Coningsby, United Kingdom (3391): temperature -20cm & temperature -100cm: 23.07.2017 12:00:00 - 29.07.2017 12:00:00 (BST)Coningsby, United Kingdom (3391): wind speed & gusts: 23.07.2017 12:00:00 - 29.07.2017 12:00:00 (BST)Coningsby, United Kingdom (3391): wind direction: 23.07.2017 12:00:00 - 29.07.2017 12:00:00 (BST)Coningsby, United Kingdom (3391): reduced air pressure: 23.07.2017 12:00:00 - 29.07.2017 12:00:00 (BST)Coningsby, United Kingdom (3391): visibility: 23.07.2017 12:00:00 - 29.07.2017 12:00:00 (BST)Coningsby, United Kingdom (3391): precipitation: 23.07.2017 12:00:00 - 29.07.2017 12:00:00 (BST)
Date & Time tt [°C] td [°C] tt -20cm [°C] tt -100cm [°C] ff [km/h] ff [kn] fx [km/h] fx [kn] dd ppp [hPa] vv [km] rr [mm]
29.07.2017 12:00:00 18,1 9,0 - - 22 12 - - SW 1007,6 10 0,0
29.07.2017 11:00:00 18,6 9,3 - - 24 13 - - SW 1007,4 10 0,0
29.07.2017 10:00:00 18,4 9,9 16,0 16,0 21 11 - - WSW 1007,0 10 0,0
29.07.2017 09:00:00 17,0 11,8 - - 16 9 - - SW 1006,6 10 0,0
29.07.2017 08:00:00 15,2 12,5 - - 24 13 - - WSW 1006,4 10 0,0
29.07.2017 07:00:00 14,3 12,7 - - 18 10 - - WSW 1005,7 10 0,0
29.07.2017 06:00:00 13,7 12,7 - - 16 9 - - WSW 1005,3 10 0,0
29.07.2017 05:00:00 13,8 13,2 - - 9 5 - - SW 1004,6 10 0,0
29.07.2017 04:00:00 14,1 13,4 - - 15 8 - - WSW 1004,0 10 0,0
29.07.2017 03:00:00 15,5 14,3 - - 18 10 - - W 1003,3 10 0,0
29.07.2017 02:00:00 16,2 14,8 - - 21 11 - - WSW 1002,6 10 0,0
29.07.2017 01:00:00 16,4 15,5 - - 18 10 - - SW 1002,1 10 0,0
29.07.2017 00:00:00 16,0 15,3 - - 24 13 - - SSW 1001,7 8 0,4
28.07.2017 23:00:00 15,8 14,9 - - 26 14 - - S 1002,0 10 0,0
28.07.2017 22:00:00 15,7 14,6 - - 22 12 - - S 1002,9 10 0,2
28.07.2017 21:00:00 15,7 14,8 - - 18 10 - - S 1003,3 8 0,6
28.07.2017 20:00:00 15,7 14,9 - - 13 7 - - S 1004,1 4,5 1,8
28.07.2017 19:00:00 16,6 14,4 - - 16 9 - - SSW 1004,4 10 0,4
28.07.2017 18:00:00 19,5 11,8 - - 24 13 - - SSW 1004,4 10 0,0
28.07.2017 17:00:00 19,6 12,0 - - 26 14 50 27 SW 1004,9 10 0,0
28.07.2017 16:00:00 19,9 12,0 - - 31 17 54 29 SW 1005,0 10 0,0
28.07.2017 15:00:00 18,5 11,9 - - 31 17 50 27 SW 1005,5 10 0,0
28.07.2017 14:00:00 18,2 12,3 - - 21 11 - - SSW 1005,7 10 0,0
28.07.2017 13:00:00 18,9 10,7 - - 26 14 - - SW 1005,7 10 0,0
28.07.2017 12:00:00 18,8 9,3 - - 28 15 54 29 WSW 1005,6 10 0,0
28.07.2017 11:00:00 19,1 8,7 - - 34 18 50 27 WSW 1005,3 10 0,0
28.07.2017 10:00:00 17,8 9,5 16,0 16,0 31 17 48 26 SW 1005,4 10 0,0
28.07.2017 09:00:00 16,4 9,8 - - 28 15 46 25 SW 1005,2 10 0,0
28.07.2017 08:00:00 15,0 11,4 - - 24 13 - - SW 1004,7 10 0,0
28.07.2017 07:00:00 13,5 10,8 - - 21 11 - - SSW 1004,6 10 0,0
28.07.2017 06:00:00 13,1 10,6 - - 16 9 - - SW 1004,1 10 0,0
28.07.2017 05:00:00 12,9 10,2 - - 18 10 - - SW 1004,1 10 0,0
28.07.2017 04:00:00 11,9 10,3 - - 15 8 - - SW 1003,9 10 0,0
28.07.2017 03:00:00 12,3 10,7 - - 13 7 - - SW 1004,0 10 0,0
28.07.2017 02:00:00 13,4 11,2 - - 21 11 - - SW 1003,8 30 0,0
28.07.2017 01:00:00 12,5 11,0 - - 11 6 - - SSW 1003,9 10 0,0
28.07.2017 00:00:00 12,7 11,5 - - 8 4 - - SSW 1003,7 10 0,0
27.07.2017 23:00:00 13,1 11,8 - - 11 6 - - SSW 1003,6 30 0,0
27.07.2017 22:00:00 13,7 12,2 - - 15 8 - - SW 1003,7 30 0,4
27.07.2017 21:00:00 15,5 12,7 - - 9 5 - - SSW 1003,0 10 0,0
27.07.2017 20:00:00 15,7 12,8 - - 15 8 - - SW 1003,0 10 0,2
27.07.2017 19:00:00 17,4 12,3 - - 24 13 - - WSW 1002,7 10 0,2
27.07.2017 18:00:00 19,6 9,6 - - 26 14 - - SW 1002,5 10 0,0
27.07.2017 17:00:00 19,2 11,0 - - 21 11 - - WSW 1002,9 10 0,0
27.07.2017 16:00:00 19,7 9,5 - - 18 10 - - WSW 1002,9 10 0,0
27.07.2017 15:00:00 19,4 8,5 - - 22 12 - - WSW 1003,2 10 0,0
27.07.2017 14:00:00 17,9 10,9 - - 18 10 - - WSW 1003,7 10 0,0
27.07.2017 13:00:00 15,7 10,2 - - 24 13 48 26 SW 1004,0 10 0,0
27.07.2017 12:00:00 17,1 8,6 - - 26 14 - - SW 1004,1 10 0,0
27.07.2017 11:00:00 16,3 8,9 - - 21 11 - - SW 1004,4 25 0,0
27.07.2017 10:00:00 15,3 9,6 16,2 16,0 16 9 - - SW 1004,7 10 0,0
27.07.2017 09:00:00 16,0 10,0 - - 18 10 - - WSW 1005,2 10 0,0
27.07.2017 08:00:00 14,1 10,0 - - 18 10 - - SW 1005,2 10 0,0
27.07.2017 07:00:00 12,3 10,7 - - 13 7 - - SW 1005,0 10 0,0
27.07.2017 06:00:00 11,7 10,1 - - 9 5 - - SSW 1004,7 10 0,0
27.07.2017 05:00:00 11,1 9,7 - - 15 8 - - SW 1004,2 10 0,0
27.07.2017 04:00:00 11,5 9,4 - - 13 7 - - WSW 1004,1 10 0,0
27.07.2017 03:00:00 12,5 9,8 - - 13 7 - - WSW 1004,3 10 0,0
27.07.2017 02:00:00 12,4 9,7 - - 11 6 - - SW 1003,9 10 0,0
27.07.2017 01:00:00 13,7 9,8 - - 16 9 - - WSW 1003,5 10 0,0
27.07.2017 00:00:00 14,1 9,7 - - 16 9 - - WSW 1003,5 10 0,0
26.07.2017 23:00:00 16,7 9,2 - - 18 10 - - WSW 1003,0 10 0,0
26.07.2017 22:00:00 16,8 10,3 - - 15 8 - - WSW 1002,3 10 0,0
26.07.2017 21:00:00 19,6 13,1 - - 16 9 - - W 1001,2 10 0,0
26.07.2017 20:00:00 20,7 16,2 - - 15 8 - - SW 1000,2 10 0,0
26.07.2017 19:00:00 21,2 16,5 - - 24 13 - - SW 1000,1 30 0,0
26.07.2017 18:00:00 21,4 17,1 - - 26 14 46 25 SSW 1000,8 40 0,0
26.07.2017 17:00:00 21,7 17,2 - - 31 17 46 25 SSW 1001,3 10 0,0
26.07.2017 16:00:00 19,7 16,7 - - 26 14 - - SSW 1001,9 10 0,0
26.07.2017 15:00:00 19,7 17,9 - - 22 12 - - S 1002,7 10 0,0
26.07.2017 14:00:00 18,2 17,3 - - 21 11 - - S 1003,5 10 0,8
26.07.2017 13:00:00 17,5 16,7 - - 22 12 - - S 1004,1 5 1,8
26.07.2017 12:00:00 17,7 15,9 - - 22 12 - - S 1004,8 8 0,2
26.07.2017 11:00:00 18,3 14,2 - - 22 12 - - S 1005,3 10 0,0
26.07.2017 10:00:00 18,3 15,0 16,4 16,0 18 10 - - S 1005,8 10 0,0
26.07.2017 09:00:00 16,2 13,8 - - 13 7 - - S 1006,6 10 0,0
26.07.2017 08:00:00 15,7 13,8 - - 11 6 - - S 1007,6 10 0,0
26.07.2017 07:00:00 14,6 13,3 - - 8 4 - - SSE 1007,8 10 0,0
26.07.2017 06:00:00 13,9 12,8 - - 11 6 - - ESE 1008,4 10 0,0
26.07.2017 05:00:00 14,0 12,7 - - 11 6 - - ESE 1008,9 10 0,0
26.07.2017 04:00:00 13,4 12,5 - - 11 6 - - E 1009,5 10 0,0
26.07.2017 03:00:00 12,8 12,0 - - 9 5 - - E 1010,4 10 0,0
26.07.2017 02:00:00 13,3 12,5 - - 9 5 - - E 1011,4 10 0,0
26.07.2017 01:00:00 12,7 12,1 - - 5 3 - - E 1012,2 10 0,0
26.07.2017 00:00:00 12,6 11,9 - - 5 3 - - E 1012,8 10 0,0
25.07.2017 23:00:00 13,3 12,5 - - 9 5 - - E 1013,1 10 0,0
25.07.2017 22:00:00 13,7 12,4 - - 8 4 - - ESE 1013,6 10 0,0
25.07.2017 21:00:00 14,8 12,5 - - 11 6 - - ESE 1013,5 10 0,0
25.07.2017 20:00:00 16,4 12,5 - - 15 8 - - E 1013,8 10 0,0
25.07.2017 19:00:00 18,3 13,3 - - 15 8 - - ESE 1013,9 10 0,0
25.07.2017 18:00:00 20,4 11,3 - - 4 2 - - NNW 1014,3 10 0,0
25.07.2017 17:00:00 19,7 11,4 - - 8 4 - - E 1014,6 10 0,0
25.07.2017 16:00:00 18,4 11,7 - - 8 4 - - NW 1015,0 10 0,0
25.07.2017 15:00:00 18,6 11,7 - - 9 5 - - NNW 1015,1 10 0,0
25.07.2017 14:00:00 17,9 11,5 - - 8 4 - - W 1015,6 10 0,0
25.07.2017 13:00:00 18,2 12,0 - - 9 5 - - N 1015,7 10 0,0
25.07.2017 12:00:00 16,8 12,0 - - 9 5 - - NNW 1016,1 10 0,0
25.07.2017 11:00:00 15,5 11,9 - - 13 7 - - NNW 1016,6 10 0,0
25.07.2017 10:00:00 15,7 11,9 16,0 16,0 18 10 - - NNW 1016,6 10 0,0
25.07.2017 09:00:00 14,3 11,4 - - 18 10 - - NW 1016,7 10 0,0
25.07.2017 08:00:00 12,7 11,5 - - 15 8 - - NNW 1016,9 4,0 0,0
25.07.2017 07:00:00 13,3 11,1 - - 16 9 - - NW 1016,8 10 0,0
25.07.2017 06:00:00 13,0 11,2 - - 15 8 - - NW 1016,9 10 0,0
25.07.2017 05:00:00 13,4 11,8 - - 13 7 - - NNW 1016,7 10 0,0
25.07.2017 04:00:00 13,4 12,8 - - 15 8 - - NNW 1016,6 4,0 0,0
25.07.2017 03:00:00 13,7 12,7 - - 18 10 - - NW 1016,7 10 0,0
25.07.2017 02:00:00 13,8 12,2 - - 16 9 - - NNW 1016,8 10 0,0
25.07.2017 01:00:00 13,8 11,9 - - 18 10 - - NW 1016,9 10 0,0
25.07.2017 00:00:00 14,2 11,8 - - 21 11 - - NW 1016,7 10 0,0
24.07.2017 23:00:00 14,4 11,5 - - 16 9 - - NW 1016,8 10 0,0
24.07.2017 22:00:00 14,4 11,9 - - 16 9 - - NW 1016,9 10 0,0
24.07.2017 21:00:00 14,6 12,3 - - 15 8 - - NW 1016,6 10 0,0
24.07.2017 20:00:00 14,6 11,9 - - 21 11 - - NNW 1016,5 10 0,0
24.07.2017 19:00:00 14,8 12,1 - - 24 13 - - NNW 1016,0 10 0,0
24.07.2017 18:00:00 15,0 11,9 - - 24 13 - - NW 1015,7 10 0,0
24.07.2017 17:00:00 14,5 12,5 - - 24 13 - - NW 1015,4 10 0,0
24.07.2017 16:00:00 14,1 12,7 - - 24 13 - - NW 1015,4 10 0,0
24.07.2017 15:00:00 14,2 13,0 - - 24 13 - - NW 1015,1 7 0,0
24.07.2017 14:00:00 14,3 12,8 - - 29 16 - - NW 1014,7 7 0,0
24.07.2017 13:00:00 14,5 12,8 - - 29 16 - - NNW 1014,1 10 0,2
24.07.2017 12:00:00 14,4 12,9 - - 24 13 - - NNW 1013,7 10 0,0
24.07.2017 11:00:00 14,3 13,0 - - 24 13 - - NNW 1013,3 10 0,0
24.07.2017 10:00:00 14,0 12,9 16,7 16,0 26 14 - - NW 1012,7 10 0,2
24.07.2017 09:00:00 13,9 12,9 - - 24 13 - - NW 1012,0 4,5 0,2
24.07.2017 08:00:00 14,0 13,0 - - 22 12 - - NW 1011,5 4,0 0,2
24.07.2017 07:00:00 14,3 12,8 - - 24 13 - - NNW 1011,0 10 0,0
24.07.2017 06:00:00 14,7 13,8 - - 21 11 - - NNW 1010,7 10 0,0
24.07.2017 05:00:00 15,0 14,2 - - 15 8 - - N 1010,0 10 0,2
24.07.2017 04:00:00 14,5 14,1 - - 8 4 - - NNW 1009,7 10 0,0
24.07.2017 03:00:00 14,1 13,6 - - 5 3 - - WNW 1009,5 10 0,0
24.07.2017 02:00:00 13,8 13,4 - - 4 2 - - SSW 1009,5 15 0,0
24.07.2017 01:00:00 13,9 13,4 - - 11 6 - - WSW 1009,6 9 0,0
24.07.2017 00:00:00 13,9 13,4 - - 11 6 - - WSW 1009,5 10 1,2
23.07.2017 23:00:00 14,4 13,4 - - 9 5 - - W 1010,1 10 0,6
23.07.2017 22:00:00 14,6 13,4 - - 9 5 - - W 1010,5 10 0,6
23.07.2017 21:00:00 14,4 13,6 - - 11 6 - - WSW 1010,4 10 0,2
23.07.2017 20:00:00 14,7 13,2 - - 8 4 - - W 1010,4 10 1,0
23.07.2017 19:00:00 15,2 12,1 - - 15 8 - - WNW 1010,5 10 0,2
23.07.2017 18:00:00 16,9 13,5 - - 9 5 - - W 1010,2 8 0,2
23.07.2017 17:00:00 16,2 12,9 - - 11 6 - - WSW 1010,3 10 0,0
23.07.2017 16:00:00 16,6 13,0 - - 5 3 - - SSW 1010,5 10 1,0
23.07.2017 15:00:00 18,2 10,7 - - 8 4 - - W 1010,5 10 0,0
23.07.2017 14:00:00 17,4 10,3 - - 11 6 - - WNW 1010,6 10 0,0
23.07.2017 13:00:00 16,5 10,6 - - 13 7 - - WNW 1010,6 10 0,0
23.07.2017 12:00:00 16,5 10,5 - - 11 6 - - WNW 1010,4 10 0,0

tt = temperature
td = dewpoint
tt -20cm = temperature -20cm
tt -100cm = temperature -100cm
ff = wind speed
fx = gusts
dd = wind direction
ppp = reduced air pressure
vv = visibility
rr = precipitation

Next stations